Location: Newark
(11.4947°N, 0.1467°E)
Time: 11:39:45
(UTC+00:00)

ISS - Visible Passes

Search period start: 14 November 2019 00:00
Search period end: 24 November 2019 00:00
Orbit: 412 x 421 km, 51.6° (Epoch: 14 November)

Date Brightness Start Highest point End Pass type
(mag) Time Alt. Az. Time Alt. Az. Time Alt. Az.
14 Nov -2.4 18:55:55 10° SSW 18:57:57 29° S 18:57:57 29° S visible
15 Nov -0.8 04:52:05 10° NNE 04:53:15 11° NE 04:54:25 10° ENE visible
15 Nov -2.0 18:08:28 10° SSE 18:10:46 18° SE 18:12:17 14° E visible
15 Nov -0.2 19:45:12 10° W 19:45:13 10° W 19:45:13 10° W visible
16 Nov -2.4 18:55:51 10° WSW 18:58:55 34° NW 18:59:32 31° NNW visible
17 Nov -3.0 04:51:13 20° NNW 04:53:13 49° NE 04:56:28 10° SE visible
17 Nov -3.8 18:07:13 10° SW 18:10:33 87° NW 18:13:47 11° NE visible
18 Nov -1.3 04:05:30 20° ENE 04:05:30 20° ENE 04:07:26 10° ESE visible
19 Nov -2.7 04:52:45 28° WSW 04:52:59 28° SW 04:55:55 10° S visible
19 Nov -1.2 18:08:05 10° W 18:10:24 17° NW 18:12:43 10° N visible
20 Nov -1.2 04:06:59 18° SSE 04:06:59 18° SSE 04:07:57 10° SSE visible
